Regional Weather Roundup
Issued by NWS

Home | Current Version | Previous Version | Text Only | Print | Product List | Glossary On
Versions: 1 2 3 4 5 6 7 8 9 10 11 12 13 14 15 16 17 18 19 20 21 22 23 24 25 26 27 28 29 30 31 32 33 34 35 36 37 38 39 40 41 42 43 44 45 46 47 48 49 50
000
ASUS46 KPQR 271710
RWROR

OREGON REGIONAL WEATHER ROUNDUP
NATIONAL WEATHER SERVICE PORTLAND OR
900 AM PST FRI FEB 27 2015

NOTE: "FAIR" INDICATES FEW OR NO CLOUDS BELOW 12,000 FEET WITH
NO SIGNIFICANT WEATHER AND/OR OBSTRUCTIONS TO VISIBILITY.

ORZ001>013-271800-
NORTHWEST OREGON


CITY           SKY/WX    TMP DP  RH WIND       PRES   REMARKS
ASTORIA        CLOUDY    49  47  93 S6        29.72R
NEWPORT        CLOUDY    48  45  87 W6        29.80F
PORTLAND       PTSUNNY   49  47  93 S5        29.75R
VANCOUVER WA   CLOUDY    49  45  86 CALM      29.74R
SCAPPOOSE      CLOUDY    49  46  90 CALM      29.73R
HILLSBORO      CLOUDY    47  43  86 CALM      29.74R
AURORA         CLOUDY    49  44  83 SW6       29.76S
MCMINNVILLE    PTSUNNY   48  44  86 SW6       29.76S
SALEM          CLOUDY    49  43  80 SW8       29.75S
CORVALLIS      CLOUDY    48  45  87 W3        29.78F
EUGENE         PTSUNNY   48  44  86 SW10      29.80S
$$

ORZ021-028-271800-
SOUTHWEST OREGON


CITY           SKY/WX    TMP DP  RH WIND       PRES   REMARKS
NORTH BEND     CLOUDY    52  46  82 NW8       29.86S
BROOKINGS      LGT RAIN  48  48 100 N6        29.89S FOG
ROSEBURG       LGT RAIN  48  45  89 SW3       29.83S
SEXTON SUMMIT  FOG       36  36 100 VRB3      29.78S VSB 1/4
MEDFORD        CLOUDY    46  42  86 CALM      29.82S
$$

ORZ014>016-041-271800-
COLUMBIA GORGE


CITY           SKY/WX    TMP DP  RH WIND       PRES   REMARKS
TROUTDALE      LGT RAIN  49  45  86 SW7       29.74R
THE DALLES     LGT RAIN  46  43  89 E5        29.74R
$$

ORZ029>031-041-044-049-050-061>064-502-503-505>511-271800-
EASTERN OREGON


CITY           SKY/WX    TMP DP  RH WIND       PRES   REMARKS
REDMOND        MOSUNNY   40  38  93 CALM      29.70S
BEND           MOSUNNY   41  34  75 CALM      29.69S
PRINEVILLE     PTSUNNY   39  37  93 CALM      29.70S
KLAMATH FALLS  LGT RAIN  40  34  79 W9        29.75S WCI  34
LAKEVIEW       CLOUDY    36  32  87 S6        29.74F WCI  31
HERMISTON      CLOUDY    45  37  73 NE12      29.73S
PENDLETON      CLOUDY    43  37  79 E5        29.71S
JOHN DAY       LGT RAIN  37  34  89 CALM      29.71R
MEACHAM        CLOUDY    35  33  92 CALM      29.70S
LA GRANDE      CLOUDY    37  28  70 CALM      29.74S
BAKER CITY     CLOUDY    37  34  89 E6        29.74S WCI  32
BURNS          FOG       32  29  88 CALM      29.72F VSB 3/4
ROME             N/A     36  31  82 CALM      29.72S
ONTARIO        PTSUNNY   37  32  82 CALM      29.81S
$$


USA.gov is the U.S. government's official web portal to all federal, state and local government web resources and services.